Location: Katwijk
(52.2000°N, 4.4170°E)
Time: 09:08:28
(UTC+01:00)

ISS - Visible Passes

Search period start: 04 December 2016 00:00
Search period end: 14 December 2016 00:00
Orbit: 401 x 410 km, 51.6° (Epoch: 04 December)

Date Brightness Start Highest point End Pass type
(mag) Time Alt. Az. Time Alt. Az. Time Alt. Az.
04 Dec -1.9 18:17:50 10° SSW 18:20:37 25° SSE 18:21:18 23° SE visible
04 Dec -0.1 19:53:30 10° WSW 19:53:59 13° WSW 19:53:59 13° WSW visible
05 Dec -1.2 17:26:36 10° S 17:28:51 17° SE 17:31:08 10° E visible
05 Dec -2.3 19:01:39 10° WSW 19:04:09 43° SSW 19:04:09 43° SSW visible
06 Dec -2.5 18:09:52 10° SW 18:13:00 41° SSE 18:14:16 27° ESE visible
06 Dec -0.4 19:46:02 10° W 19:46:56 17° W 19:46:56 17° W visible
07 Dec -1.9 17:18:14 10° SSW 17:21:09 29° SSE 17:24:04 10° E visible
07 Dec -3.0 18:54:05 10° WSW 18:57:01 64° SW 18:57:01 64° SW visible
08 Dec -3.1 18:02:10 10° WSW 18:05:25 61° SSE 18:07:05 26° E visible
08 Dec -0.6 19:38:33 10° W 19:39:46 21° W 19:39:46 21° W visible
09 Dec -2.5 17:10:18 10° SW 17:13:29 46° SSE 17:16:41 10° E visible
09 Dec -3.4 18:46:33 10° W 18:49:49 82° SSW 18:49:49 82° SSW visible
10 Dec -3.3 17:54:33 10° WSW 17:57:51 78° S 17:59:52 22° E visible
10 Dec -1.0 19:31:01 10° W 19:32:32 25° W 19:32:32 25° W visible
11 Dec -3.4 18:39:00 10° W 18:42:18 79° S 18:42:37 69° SE visible
12 Dec -3.3 17:46:57 10° W 17:50:16 83° S 17:52:43 17° E visible
12 Dec -1.3 19:23:27 10° W 19:25:23 30° WSW 19:25:23 30° WSW visible
13 Dec -3.0 18:31:23 10° W 18:34:40 63° SSW 18:35:32 42° SE visible
13 Dec 0.3 20:08:11 10° W 20:08:13 10° W 20:08:13 10° W visible
